Monroe, MI

3:02 AM EDT on June 24, 2017 (GMT -0400)
Custer

Weather History for KTTF - October, 2014

Change the Weather History Date:

Tuesday, October 21, 2014

  Actual Average Record
Temperature  
Mean Temperature 48 °F -  
Max Temperature 51 °F 57 °F 80 °F (2007)
Min Temperature 44 °F 40 °F 24 °F (1952)
Degree Days  
Heating Degree Days 18    
Moisture  
Dew Point 42 °F    
Average Humidity 83    
Maximum Humidity 100    
Minimum Humidity 71    
Precipitation  
Precipitation 0.00 in - - ()
Sea Level Pressure  
Sea Level Pressure 30.01 in    
Wind  
Wind Speed 8 mph (NNW)    
Max Wind Speed 15 mph    
Max Gust Speed 24 mph    
Visibility 10 miles    
Events Rain    
Averages and records for this station are not official NWS values.
T = Trace of Precipitation, MM = Missing Value Source: NWS Daily Summary

Daily Weather History Graph

Daily Weather History Graph

Search for Another Location

Airport or City:

Trip Planner

Search our weather history database for the weather conditions in past years. The results will help you decide how hot, cold, wet, or windy it might be!

Date:

Astronomy

Oct. 21, 2014 Rise Set
Actual Time 7:53 AM EDT 6:42 PM EDT
Civil Twilight 7:24 AM EDT 7:11 PM EDT
Nautical Twilight 6:52 AM EDT 7:43 PM EDT
Astronomical Twilight 6:19 AM EDT 8:16 PM EDT
Moon 5:34 AM EDT (10/21) 5:38 PM EDT (10/21)
Length of Visible Light 11h 46m
Length of Day
10h 49m
Waning Crescent, 5% of the Moon is Illuminated
Oct 21
Waning Crescent
Oct 23
New
Oct 30
First Quarter
Nov 6
Full
Nov 14
Last Quarter

Hourly Weather History & Observations

Time (EDT) Temp. Windchill Dew Point Humidity Pressure Visibility Wind Dir Wind Speed Gust Speed Precip Events Conditions
12:15 AM 51.8 °F - 51.8 °F 100% 29.86 in 5.0 mi NW 3.5 mph - N/A   Overcast
12:35 AM 51.8 °F - 50.0 °F 94% 29.86 in 7.0 mi NNW 6.9 mph - N/A   Overcast
12:56 AM 51.8 °F - 48.2 °F 88% 29.86 in 10.0 mi NW 8.1 mph - N/A   Overcast
1:16 AM 51.8 °F - 48.2 °F 88% 29.86 in 10.0 mi NNW 5.8 mph - N/A   Overcast
1:36 AM 50.0 °F - 46.4 °F 87% 29.86 in 10.0 mi NNW 10.4 mph - N/A   Overcast
1:56 AM 48.2 °F - 46.4 °F 93% 29.87 in 10.0 mi NNW 6.9 mph - N/A   Overcast
2:16 AM 48.2 °F - 46.4 °F 93% 29.87 in 10.0 mi NNW 5.8 mph - N/A   Mostly Cloudy
2:36 AM 48.2 °F - 46.4 °F 93% 29.87 in 10.0 mi North 6.9 mph - N/A   Overcast
2:56 AM 48.2 °F - 44.6 °F 87% 29.88 in 10.0 mi NNW 4.6 mph - N/A   Overcast
3:16 AM 48.2 °F - 46.4 °F 93% 29.88 in 10.0 mi NNW 5.8 mph - N/A   Overcast
3:36 AM 48.2 °F - 46.4 °F 93% 29.88 in 10.0 mi WNW 4.6 mph - N/A   Overcast
3:51 AM 48.2 °F - 46.4 °F 93% 29.88 in 10.0 mi WNW 3.5 mph - N/A   Overcast
4:12 AM 48.2 °F - 46.4 °F 93% 29.88 in 10.0 mi WNW 5.8 mph - N/A   Overcast
4:32 AM 48.2 °F - 46.4 °F 93% 29.88 in 10.0 mi West 4.6 mph - N/A   Overcast
4:52 AM 48.2 °F - 46.4 °F 93% 29.88 in 10.0 mi WNW 5.8 mph - N/A   Overcast
5:12 AM 48.2 °F - 46.4 °F 93% 29.89 in 10.0 mi WNW 6.9 mph - N/A   Overcast
5:32 AM 48.2 °F - 44.6 °F 87% 29.89 in 10.0 mi WNW 5.8 mph - N/A   Overcast
5:52 AM 48.2 °F - 44.6 °F 87% 29.90 in 10.0 mi WNW 4.6 mph - N/A   Overcast
6:12 AM 48.2 °F - 44.6 °F 87% 29.90 in 10.0 mi NW 4.6 mph - N/A   Overcast
6:32 AM 48.2 °F - 44.6 °F 87% 29.91 in 10.0 mi NW 4.6 mph - N/A   Overcast
6:52 AM 48.2 °F - 44.6 °F 87% 29.92 in 10.0 mi NW 4.6 mph - N/A   Overcast
7:12 AM 48.2 °F - 44.6 °F 87% 29.92 in 10.0 mi NW 5.8 mph - N/A   Overcast
7:32 AM 48.2 °F - 44.6 °F 87% 29.93 in 10.0 mi NW 6.9 mph - N/A   Overcast
7:53 AM 48.2 °F - 44.6 °F 87% 29.94 in 10.0 mi NW 5.8 mph - N/A   Overcast
8:13 AM 48.2 °F - 44.6 °F 87% 29.94 in 7.0 mi NNW 6.9 mph - N/A   Overcast
8:33 AM 48.2 °F - 44.6 °F 87% 29.95 in 7.0 mi NW 8.1 mph - N/A   Overcast
8:53 AM 48.2 °F - 44.6 °F 87% 29.96 in 10.0 mi NNW 10.4 mph - N/A   Overcast
9:13 AM 48.2 °F - 46.4 °F 93% 29.97 in 10.0 mi NNW 8.1 mph - N/A   Light Drizzle
9:33 AM 48.2 °F - 46.4 °F 93% 29.97 in 4.0 mi NNW 5.8 mph - N/A   Light Drizzle
9:53 AM 48.2 °F - 46.4 °F 93% 29.98 in 3.0 mi North 8.1 mph - N/A Rain Rain
10:13 AM 48.2 °F - 44.6 °F 87% 29.99 in 10.0 mi North 10.4 mph 16.1 mph N/A   Overcast
10:33 AM 48.2 °F - 46.4 °F 93% 29.99 in 10.0 mi North 11.5 mph - N/A   Overcast
10:54 AM 48.2 °F - 44.6 °F 87% 30.00 in 10.0 mi North 13.8 mph 18.4 mph N/A   Drizzle
11:14 AM 48.2 °F - 44.6 °F 87% 30.01 in 10.0 mi NNE 5.8 mph - N/A   Overcast
11:34 AM 46.4 °F 41.1 °F 44.6 °F 93% 30.01 in 10.0 mi NNE 11.5 mph 16.1 mph N/A   Overcast
11:54 AM 48.2 °F - 42.8 °F 82% 30.02 in 10.0 mi North 15.0 mph 19.6 mph N/A   Overcast
12:14 PM 48.2 °F - 41.0 °F 76% 30.02 in 10.0 mi North 10.4 mph 19.6 mph N/A   Overcast
12:34 PM 48.2 °F - 41.0 °F 76% 30.03 in 10.0 mi North 10.4 mph 19.6 mph N/A   Overcast
12:54 PM 48.2 °F - 41.0 °F 76% 30.03 in 10.0 mi North 13.8 mph 18.4 mph N/A   Overcast
1:14 PM 48.2 °F - 41.0 °F 76% 30.03 in 10.0 mi North 10.4 mph - N/A   Overcast
1:34 PM 48.2 °F - 41.0 °F 76% 30.04 in 10.0 mi North 12.7 mph 18.4 mph N/A   Overcast
1:54 PM 48.2 °F - 41.0 °F 76% 30.04 in 10.0 mi NNW 11.5 mph - N/A   Overcast
2:14 PM 48.2 °F - 39.2 °F 71% 30.05 in 10.0 mi NNW 10.4 mph - N/A   Overcast
2:35 PM 48.2 °F - 39.2 °F 71% 30.05 in 10.0 mi NNW 9.2 mph 16.1 mph N/A   Overcast
2:55 PM 48.2 °F - 39.2 °F 71% 30.05 in 10.0 mi NNW 12.7 mph 18.4 mph N/A   Overcast
3:16 PM 46.4 °F 40.4 °F 39.2 °F 76% 30.06 in 10.0 mi NNW 13.8 mph 18.4 mph N/A   Overcast
3:36 PM 46.4 °F 40.1 °F 39.2 °F 76% 30.06 in 10.0 mi NNW 15.0 mph 19.6 mph N/A   Overcast
3:56 PM 46.4 °F 41.1 °F 39.2 °F 76% 30.07 in 10.0 mi North 11.5 mph 24.2 mph N/A   Overcast
4:16 PM 46.4 °F 41.5 °F 39.2 °F 76% 30.08 in 10.0 mi NNW 10.4 mph - N/A   Overcast
4:36 PM 46.4 °F 41.9 °F 39.2 °F 76% 30.08 in 10.0 mi NNW 9.2 mph 16.1 mph N/A   Overcast
4:56 PM 46.4 °F 40.7 °F 39.2 °F 76% 30.09 in 10.0 mi NNW 12.7 mph 19.6 mph N/A   Overcast
5:11 PM 46.4 °F 40.1 °F 39.2 °F 76% 30.09 in 10.0 mi NNW 15.0 mph 19.6 mph N/A   Overcast
5:31 PM 46.4 °F 41.1 °F 39.2 °F 76% 30.10 in 10.0 mi NNW 11.5 mph - N/A   Overcast
5:52 PM 46.4 °F 42.4 °F 39.2 °F 76% 30.11 in 10.0 mi North 8.1 mph - N/A   Overcast
6:12 PM 46.4 °F 41.5 °F 39.2 °F 76% 30.11 in 10.0 mi NNW 10.4 mph - N/A   Overcast
6:32 PM 46.4 °F 41.9 °F 39.2 °F 76% 30.11 in 10.0 mi NNW 9.2 mph - N/A   Overcast
6:52 PM 46.4 °F 41.9 °F 39.2 °F 76% 30.13 in 10.0 mi NNW 9.2 mph - N/A   Overcast
7:12 PM 46.4 °F 41.1 °F 37.4 °F 71% 30.13 in 10.0 mi North 11.5 mph 19.6 mph N/A   Overcast
7:32 PM 44.6 °F 39.2 °F 37.4 °F 76% 30.14 in 10.0 mi North 10.4 mph - N/A   Overcast
7:52 PM 44.6 °F 38.8 °F 37.4 °F 76% 30.14 in 10.0 mi North 11.5 mph - N/A   Overcast
8:12 PM 44.6 °F 39.2 °F 37.4 °F 76% 30.15 in 10.0 mi North 10.4 mph 19.6 mph N/A   Overcast
8:32 PM 44.6 °F 39.7 °F 37.4 °F 76% 30.15 in 10.0 mi North 9.2 mph 17.3 mph N/A   Overcast
8:52 PM 44.6 °F 39.2 °F 37.4 °F 76% 30.16 in 10.0 mi North 10.4 mph - N/A   Overcast
9:12 PM 44.6 °F 38.8 °F 37.4 °F 76% 30.17 in 10.0 mi North 11.5 mph 20.7 mph N/A   Overcast
9:33 PM 44.6 °F 38.8 °F 37.4 °F 76% 30.18 in 10.0 mi North 11.5 mph - N/A   Overcast
9:53 PM 44.6 °F 38.4 °F 37.4 °F 76% 30.18 in 10.0 mi North 12.7 mph 18.4 mph N/A   Overcast
10:13 PM 44.6 °F 38.8 °F 37.4 °F 76% 30.18 in 10.0 mi North 11.5 mph 19.6 mph N/A   Overcast
10:33 PM 44.6 °F 38.8 °F 37.4 °F 76% 30.19 in 10.0 mi North 11.5 mph 16.1 mph N/A   Overcast
10:53 PM 44.6 °F 40.2 °F 37.4 °F 76% 30.20 in 10.0 mi North 8.1 mph - N/A   Overcast
11:13 PM 44.6 °F 40.2 °F 37.4 °F 76% 30.20 in 10.0 mi North 8.1 mph - N/A   Overcast
11:33 PM 44.6 °F 39.7 °F 37.4 °F 76% 30.19 in 10.0 mi North 9.2 mph - N/A   Overcast
11:53 PM 44.6 °F 40.2 °F 37.4 °F 76% 30.19 in 10.0 mi North 8.1 mph - N/A   Overcast